Location: Enikep?du
(16.5133°N, 80.7066°E)
Time: 04:24:23
(UTC+00:00)

SMAP - Pass Details

Date: 20 January 2020
Orbit: 681 x 683 km, 98.1° (Epoch: 19 February)

Event Time Altitude Azimuth Distance (km) Brightness Sun altitude
Rises 00:18:13 0° 21° (NNE) 3,033 6.4 -12.4°
Reaches altitude 10° 00:20:32 10° 27° (NNE) 2,117 5.7 -11.9°
Maximum altitude 00:24:59 46° 101° (E) 907 4.3 -10.9°
Drops below altitude 10° 00:29:25 10° 174° (S) 2,114 5.9 -9.8°
Sets 00:31:43 0° 180° (S) 3,028 6.7 -9.3°
